STARLINK-35860

Last updated on Fri Dec 19 2025 00:02:08 GMT+0000 (Coordinated Universal Time)

1 66881U 25283D 25352.58336806 -.01324448 00000+0 -81248-2 0 9997 2 66881 53.1552 44.4363 0001145 87.9602 36.3514 15.79105272 3362
UTC large
Height (km)
Speed (km/s)
/
Latitude / Longitude
Inclination (degrees)
Orbital Period (minutes)
Azimuth
Elevation
Range (km)
Doppler Factor

Next 0 passes for location: London (51.5072 / 0.1276)

Sorry there are no passes over London.